[[{"header":{"parameterUnit":"m.s-1","parameterCategory":1,"la1":30.2991,"la2":30.254,"lo1":-89.0895,"lo2":-89.0444,"dy":0.0017,"dx":0.0017,"nx":28,"ny":28,"refTime":"2023-09-22T09:00:00:Z","depth":0,"parameterNumber":2,"parameterNumberName":"U-component_of_WINDS"},"data":[0,0,0,0,0,0,0,0,0,0,0,0,0,0,0,0,0,0,0,0,0,0,0,0,0,0,0,0,0,0,0,0,0,0,0,0,0,0,0,0,0,0,0,0,0,0,0,0,0,0,0,0,0,0,0,0,0,0,-1.024,-1.024,0,-1.0259,-1.0259,-1.0259,-1.0182,-1.018,-1.0178,-1.0175,-1.0198,-1.0201,-1.0203,0,0,0,0,0,0,0,0,0,0,0,0,0,-1.0141,-1.0143,-1.024,-1.024,-1.0241,-1.0259,-1.0259,-1.0259,-1.0182,-1.018,-1.0177,-1.0174,-1.0197,-1.02,-1.0203,0,0,0,0,0,0,0,0,0,0,0,0,0,-1.0175,-1.0144,-1.024,-1.0204,-1.0201,-1.0259,-1.0259,-1.0259,-1.0183,-1.018,-1.0176,-1.0173,-1.0196,-1.02,-1.0204,-1.0298,0,0,-1.0216,-1.0218,0,0,0,0,0,0,0,0,-1.0173,-1.0178,-1.0209,-1.0207,-1.0204,-1.0214,-1.0232,-1.0272,-1.0184,-1.019,-1.0175,-1.0171,-1.0206,-1.0209,-1.022,-1.0299,-1.03,-1.0217,-1.0219,-1.0221,-1.0222,0,0,0,0,0,0,0,-1.0171,-1.0177,-1.0248,-1.021,-1.0207,-1.0188,-1.0189,-1.0239,-1.0217,-1.0189,-1.0184,-1.0187,-1.0204,-1.0217,-1.022,-1.03,-1.0217,-1.022,-1.0223,-1.0224,-1.0457,-1.046,0,0,0,0,0,0,-1.0173,-1.0176,-1.0247,-1.0248,-1.0179,-1.0193,-1.0194,-1.0215,-1.0217,-1.0213,-1.019,-1.0183,-1.0211,-1.0216,-1.0221,-1.0332,-1.0221,-1.0225,-1.0227,-1.0453,-1.0458,-1.0462,0,0,0,0,0,0,-1.0171,-1.018,-1.0246,-1.021,-1.0217,-1.0198,-1.0222,-1.0217,-1.0229,-1.0217,-1.0213,-1.0207,-1.0209,-1.0215,-1.0279,-1.0332,-1.0227,-1.023,-1.0449,-1.0455,-1.046,-1.0555,0,0,0,0,0,0,-1.0168,-1.0179,-1.0214,-1.0212,-1.022,-1.0304,-1.0225,-1.022,-1.0236,-1.0228,-1.0231,-1.0229,-1.0207,-1.0273,-1.0283,-1.0336,-1.0234,-1.0444,-1.0451,-1.0458,-1.0547,-1.0563,-1.0577,0,0,0,0,0,-1.0165,-1.0241,-1.0216,-1.0225,-1.0263,-1.0307,-1.0311,-1.0283,-1.0241,-1.0276,-1.0268,-1.0229,-1.0324,-1.0281,-1.0291,-1.0345,-1.0441,-1.0449,-1.0457,-1.054,-1.056,-1.0576,0,0,0,0,0,0,-1.0251,-1.024,-1.0213,-1.029,-1.03,-1.0294,-1.0338,-1.0305,-1.0328,-1.032,-1.0284,-1.0286,-1.0357,-1.0357,-1.0309,-1.0437,-1.0375,-1.0386,-1.0434,-1.0453,-1.0467,-1.0467,-1.0237,0,0,0,0,0,-1.0279,-1.0315,-1.0303,-1.0372,-1.0378,-1.0357,-1.0375,-1.0353,-1.0362,-1.0366,-1.0363,-1.0375,-1.0407,-1.0429,-1.0458,-1.0545,-1.0546,-1.0588,-1.0603,-1.0615,-1.0626,-1.0673,-1.0692,-1.0489,-1.0489,-1.0489,0,0,-1.0337,-1.0335,-1.036,-1.0389,-1.0394,-1.0434,-1.0361,-1.0406,-1.0435,-1.0373,-1.0434,-1.0432,-1.0442,-1.0519,-1.0552,-1.0521,-1.0682,-1.0626,-1.0636,-1.064,-1.0684,-1.0703,-1.0721,-1.0495,-1.0494,-1.0493,0,0,-1.0464,-1.0465,-1.0524,-1.053,-1.0538,-1.0523,-1.0537,-1.0536,-1.0532,-1.0592,-1.0547,-1.0581,-1.0637,-1.0647,-1.066,-1.0789,-1.0755,-1.08,-1.0879,-1.0925,-1.0942,-1.0956,-1.1004,-1.1022,-1.081,-1.081,-1.081,0,-1.0536,-1.0592,-1.0558,-1.0606,-1.0621,-1.0565,-1.0625,-1.0633,-1.0651,-1.0663,-1.0627,-1.0697,-1.07,-1.0779,-1.081,-1.0821,-1.0838,-1.0801,-1.0942,-1.0955,-1.0968,-1.1014,-1.1032,-1.0816,-1.0815,-1.0814,-1.0814,0,-1.0681,-1.0721,-1.0767,-1.0785,-1.0805,-1.0858,-1.0833,-1.0857,-1.0833,-1.0822,-1.0884,-1.0886,-1.0915,-1.0931,-1.0908,-1.1007,-1.0988,-1.0947,-1.0885,-1.0994,-1.1036,-1.1054,-1.0824,-1.0822,-1.082,-1.0819,0,0,-1.0865,-1.0862,-1.088,-1.0888,-1.0893,-1.0923,-1.0974,-1.1002,-1.1024,-1.1038,-1.1081,-1.113,-1.1092,-1.1107,-1.1083,-1.1124,-1.123,-1.1079,-1.1079,-1.1109,-1.1341,-1.1374,-1.1395,-1.1205,-1.1208,-1.1211,-1.1341,0,-1.0991,-1.1078,-1.1049,-1.1138,-1.1175,-1.1122,-1.1167,-1.1175,-1.1166,-1.1197,-1.1187,-1.1223,-1.117,-1.1179,-1.1216,-1.1209,-1.1276,-1.1199,-1.1248,-1.125,-1.125,-1.1416,-1.1451,-1.1574,-1.1358,-1.136,-1.1362,0,-1.1151,-1.117,-1.1263,-1.1261,-1.1276,-1.1317,-1.134,-1.1369,-1.1378,-1.1368,-1.1384,-1.1352,-1.1404,-1.1339,-1.1411,-1.1358,-1.1376,-1.1376,-1.138,-1.1386,-1.1315,-1.143,-1.1612,-1.1632,-1.1388,-1.1386,-1.1384,0,-1.1279,-1.1328,-1.139,-1.1398,-1.1397,-1.1427,-1.1429,-1.1433,-1.1452,-1.1472,-1.1484,-1.151,-1.1525,-1.1547,-1.1523,-1.1478,-1.1599,-1.1532,-1.1595,-1.1596,-1.1625,-1.1624,-1.1816,-1.1632,-1.1632,-1.1632,-1.1631,0,-1.1425,-1.1484,-1.1447,-1.1486,-1.1551,-1.1517,-1.1582,-1.1578,-1.1583,-1.162,-1.1575,-1.1612,-1.1577,-1.1611,-1.1593,-1.1656,-1.1663,-1.1658,-1.1653,-1.1664,-1.1665,-1.1677,-1.1669,-1.1636,-1.1635,-1.1634,-1.1634,0,-1.158,-1.1558,-1.1622,-1.1616,-1.1615,-1.1664,-1.1659,-1.1695,-1.1682,-1.173,-1.174,-1.172,-1.1758,-1.1736,-1.1774,-1.1762,-1.1845,-1.1826,-1.1842,-1.1838,-1.1903,-1.1898,-1.2112,-1.2139,-1.1936,-1.1937,-1.1939,0,-1.1676,-1.172,-1.1718,-1.174,-1.1744,-1.1779,-1.1797,-1.1764,-1.1786,-1.1799,-1.1834,-1.1867,-1.1892,-1.1954,-1.1945,-1.1974,-1.1958,-1.203,-1.1962,-1.1972,-1.1962,-1.1961,-1.1966,-1.2045,-1.2048,-1.205,-1.2051,0,-1.1849,-1.1836,-1.1864,-1.1888,-1.1911,-1.1929,-1.1943,-1.1963,-1.193,-1.1957,-1.1994,-1.2013,-1.2051,-1.2086,-1.2111,-1.2113,-1.2078,-1.2072,-1.2089,-1.2102,-1.211,-1.2109,-1.1883,-1.2068,-1.2067,-1.2065,-1.2065,-1.2064,-1.198,-1.2017,-1.2022,-1.2054,-1.2061,-1.2075,-1.2109,-1.21,-1.213,-1.2159,-1.2137,-1.2182,-1.219,-1.2219,-1.2226,-1.2261,-1.2232,-1.2255,-1.2262,-1.2269,-1.2279,-1.2102,-1.2265,-1.2265,-1.2264,-1.2264,-1.2263,0,-1.2153,-1.2153,-1.2183,-1.2204,-1.223,-1.2192,-1.2206,-1.223,-1.227,-1.2279,-1.2305,-1.2348,-1.2381,-1.2373,-1.2403,-1.2433,-1.2418,-1.2442,-1.2441,-1.2443,-1.2302,-1.2286,-1.2454,-1.2454,-1.2454,-1.2454,-1.2454,-1.2454,-1.2247,-1.2308,-1.2296,-1.2361,-1.236,-1.2403,-1.2414,-1.2428,-1.2435,-1.2485,-1.2512,-1.2506,-1.2509,-1.2539,-1.2568,-1.2565,-1.2579,-1.261,-1.2602,-1.2471,-1.2452,-1.2435,-1.2419,-1.2613,-1.2613,-1.274,-1.2741,-1.2742]},{"header":{"parameterUnit":"m.s-1","parameterCategory":1,"la1":30.2991,"la2":30.254,"lo1":-89.0895,"lo2":-89.0444,"dy":0.0017,"dx":0.0017,"nx":28,"ny":28,"refTime":"2023-09-22T09:00:00:Z","depth":0,"parameterNumber":3,"parameterNumberName":"V-component_of_WINDS"},"data":[0,0,0,0,0,0,0,0,0,0,0,0,0,0,0,0,0,0,0,0,0,0,0,0,0,0,0,0,0,0,0,0,0,0,0,0,0,0,0,0,0,0,0,0,0,0,0,0,0,0,0,0,0,0,0,0,0,0,-2.4911,-2.4912,0,-2.5002,-2.5003,-2.5004,-2.5037,-2.5036,-2.5036,-2.5036,-2.5125,-2.5127,-2.513,0,0,0,0,0,0,0,0,0,0,0,0,0,-2.4761,-2.4764,-2.4911,-2.4912,-2.4913,-2.5002,-2.5003,-2.5004,-2.5037,-2.5036,-2.5036,-2.5035,-2.5124,-2.5127,-2.513,0,0,0,0,0,0,0,0,0,0,0,0,0,-2.4836,-2.4764,-2.4911,-2.494,-2.4944,-2.5001,-2.5003,-2.5004,-2.5037,-2.5036,-2.5036,-2.5035,-2.5123,-2.5127,-2.513,-2.5164,0,0,-2.5143,-2.5144,0,0,0,0,0,0,0,0,-2.4832,-2.4842,-2.4935,-2.4938,-2.4942,-2.5007,-2.4983,-2.5058,-2.5037,-2.5001,-2.5036,-2.5035,-2.5086,-2.5093,-2.5111,-2.5169,-2.5172,-2.5143,-2.5145,-2.5147,-2.5148,0,0,0,0,0,0,0,-2.4827,-2.4838,-2.4947,-2.4936,-2.4941,-2.4947,-2.4958,-2.4997,-2.5045,-2.5004,-2.5007,-2.5017,-2.5088,-2.5107,-2.5113,-2.5174,-2.5143,-2.5146,-2.5149,-2.515,-2.5263,-2.5263,0,0,0,0,0,0,-2.4817,-2.4833,-2.4944,-2.4949,-2.4885,-2.495,-2.4962,-2.4987,-2.5045,-2.5053,-2.5018,-2.5019,-2.51,-2.5108,-2.5116,-2.5159,-2.5147,-2.5151,-2.5153,-2.5262,-2.5263,-2.5264,0,0,0,0,0,0,-2.4814,-2.4827,-2.494,-2.4892,-2.4907,-2.4954,-2.4981,-2.4989,-2.5008,-2.5055,-2.5063,-2.5029,-2.51,-2.5111,-2.5152,-2.5163,-2.5153,-2.5156,-2.5262,-2.5262,-2.5263,-2.5245,0,0,0,0,0,0,-2.4809,-2.4825,-2.484,-2.4892,-2.491,-2.4976,-2.4982,-2.4991,-2.5015,-2.5017,-2.5067,-2.5075,-2.5101,-2.5146,-2.5156,-2.5168,-2.5159,-2.5261,-2.5262,-2.5263,-2.5245,-2.5246,-2.5246,0,0,0,0,0,-2.4804,-2.483,-2.484,-2.4853,-2.4929,-2.4976,-2.4986,-2.5016,-2.5016,-2.503,-2.506,-2.5073,-2.516,-2.515,-2.5162,-2.5175,-2.526,-2.5262,-2.5263,-2.5245,-2.5246,-2.5246,0,0,0,0,0,0,-2.4776,-2.4838,-2.4849,-2.4894,-2.493,-2.4982,-2.5001,-2.5016,-2.5051,-2.5052,-2.5086,-2.5097,-2.5136,-2.516,-2.5147,-2.521,-2.5211,-2.5214,-2.5193,-2.5194,-2.5194,-2.5188,-2.5163,0,0,0,0,0,-2.4776,-2.4811,-2.4862,-2.4896,-2.4914,-2.4954,-2.4976,-2.4996,-2.5034,-2.5049,-2.5082,-2.5117,-2.5152,-2.5174,-2.5209,-2.5249,-2.526,-2.5264,-2.5264,-2.5264,-2.5266,-2.5288,-2.529,-2.5268,-2.5268,-2.5268,0,0,-2.4774,-2.4812,-2.4832,-2.4892,-2.4922,-2.4956,-2.4967,-2.5002,-2.5027,-2.5054,-2.5096,-2.5121,-2.5162,-2.5203,-2.5222,-2.5224,-2.5275,-2.5266,-2.5265,-2.5268,-2.529,-2.5292,-2.5294,-2.5269,-2.5269,-2.5269,0,0,-2.4789,-2.4822,-2.4854,-2.4884,-2.493,-2.4956,-2.4964,-2.5014,-2.5032,-2.5075,-2.5095,-2.5125,-2.5185,-2.5213,-2.5236,-2.5261,-2.5274,-2.5271,-2.5272,-2.5293,-2.5295,-2.5296,-2.5305,-2.5307,-2.5273,-2.5273,-2.5273,0,-2.4781,-2.4835,-2.4868,-2.4903,-2.4927,-2.4955,-2.4986,-2.5013,-2.5068,-2.5084,-2.5085,-2.5161,-2.519,-2.5238,-2.5244,-2.5261,-2.527,-2.5265,-2.5292,-2.5294,-2.5296,-2.5304,-2.5307,-2.5273,-2.5273,-2.5273,-2.5273,0,-2.4822,-2.4859,-2.4879,-2.4932,-2.4959,-2.4992,-2.5029,-2.5052,-2.507,-2.5096,-2.5138,-2.5175,-2.5217,-2.523,-2.5247,-2.5279,-2.5279,-2.5286,-2.5287,-2.5297,-2.5305,-2.5309,-2.5272,-2.5272,-2.5272,-2.5272,0,0,-2.4822,-2.4893,-2.49,-2.4924,-2.4977,-2.5005,-2.5038,-2.5081,-2.51,-2.5136,-2.5164,-2.5215,-2.5221,-2.5246,-2.5267,-2.5285,-2.5302,-2.529,-2.5291,-2.529,-2.5339,-2.5333,-2.5336,-2.5311,-2.5312,-2.5312,-2.5335,0,-2.4843,-2.4906,-2.4936,-2.4985,-2.5018,-2.5044,-2.5073,-2.5108,-2.5133,-2.5164,-2.5191,-2.5226,-2.5232,-2.5247,-2.5267,-2.5296,-2.5312,-2.5295,-2.5336,-2.5337,-2.5325,-2.534,-2.5335,-2.5354,-2.5338,-2.5339,-2.5339,0,-2.4876,-2.4914,-2.4966,-2.5014,-2.5029,-2.5055,-2.5096,-2.5126,-2.5165,-2.5182,-2.521,-2.523,-2.5265,-2.5264,-2.5312,-2.5299,-2.5318,-2.5335,-2.5336,-2.5341,-2.5339,-2.5345,-2.5361,-2.5364,-2.5345,-2.5344,-2.5344,0,-2.487,-2.4933,-2.4973,-2.4993,-2.505,-2.5067,-2.5092,-2.5131,-2.5154,-2.519,-2.5205,-2.5244,-2.5265,-2.5294,-2.5323,-2.532,-2.5368,-2.5369,-2.5381,-2.5381,-2.539,-2.5389,-2.5409,-2.5403,-2.5403,-2.5403,-2.5403,0,-2.489,-2.4921,-2.4971,-2.4995,-2.503,-2.5064,-2.5097,-2.5123,-2.5157,-2.5186,-2.521,-2.5236,-2.5273,-2.5304,-2.5327,-2.5362,-2.5372,-2.5385,-2.5391,-2.5383,-2.5381,-2.5395,-2.5394,-2.5404,-2.5403,-2.5403,-2.5403,0,-2.4889,-2.4924,-2.4968,-2.5019,-2.5032,-2.5056,-2.5098,-2.5122,-2.5148,-2.5184,-2.5194,-2.5235,-2.5272,-2.5305,-2.5353,-2.5368,-2.5405,-2.5412,-2.5392,-2.5395,-2.5405,-2.5403,-2.5434,-2.544,-2.543,-2.543,-2.543,0,-2.4899,-2.4924,-2.4977,-2.4999,-2.5023,-2.5057,-2.5082,-2.5116,-2.514,-2.5186,-2.5204,-2.5243,-2.5276,-2.5333,-2.5367,-2.5403,-2.5411,-2.542,-2.5417,-2.5408,-2.5411,-2.5409,-2.5411,-2.5419,-2.5419,-2.5419,-2.5419,0,-2.4913,-2.4929,-2.4965,-2.5005,-2.5034,-2.5068,-2.5102,-2.5118,-2.5158,-2.5183,-2.5222,-2.5248,-2.5298,-2.5336,-2.5377,-2.54,-2.5416,-2.542,-2.5425,-2.5416,-2.5404,-2.541,-2.5391,-2.5419,-2.5419,-2.5419,-2.5419,-2.5419,-2.4918,-2.4941,-2.4982,-2.502,-2.5049,-2.508,-2.5105,-2.5135,-2.5168,-2.5212,-2.523,-2.5269,-2.5307,-2.5363,-2.5387,-2.5417,-2.542,-2.5427,-2.5428,-2.5429,-2.5428,-2.5399,-2.5425,-2.5425,-2.5425,-2.5425,-2.5425,0,-2.4933,-2.4961,-2.4995,-2.5043,-2.5072,-2.5086,-2.5124,-2.5148,-2.5182,-2.5217,-2.5249,-2.5293,-2.533,-2.5366,-2.5404,-2.5422,-2.543,-2.543,-2.5429,-2.5434,-2.5424,-2.5415,-2.5423,-2.5423,-2.5423,-2.5423,-2.5423,-2.5423,-2.4944,-2.4983,-2.5004,-2.5057,-2.5084,-2.5124,-2.5145,-2.5173,-2.5201,-2.5249,-2.528,-2.5304,-2.5339,-2.538,-2.5414,-2.5424,-2.5436,-2.5435,-2.5446,-2.5435,-2.5435,-2.5435,-2.5427,-2.5438,-2.5438,-2.5455,-2.5455,-2.5455]}]]